Waarnemingen

Advertentie
Mijn weer
Hyeres, Frankrijk (7667): temperatuur & dauwpunt: 12.11.2017 03:00:00 - 18.11.2017 03:00:00 (CET)Hyeres, Frankrijk (7667): temperatuur 5cm: 12.11.2017 03:00:00 - 18.11.2017 03:00:00 (CET)Hyeres, Frankrijk (7667): windsnelheid & windstoten: 12.11.2017 03:00:00 - 18.11.2017 03:00:00 (CET)Hyeres, Frankrijk (7667): windrichting: 12.11.2017 03:00:00 - 18.11.2017 03:00:00 (CET)Hyeres, Frankrijk (7667): luchtdruk: 12.11.2017 03:00:00 - 18.11.2017 03:00:00 (CET)Hyeres, Frankrijk (7667): zicht: 12.11.2017 03:00:00 - 18.11.2017 03:00:00 (CET)Hyeres, Frankrijk (7667): neerslag: 12.11.2017 03:00:00 - 18.11.2017 03:00:00 (CET)
Datum & Tijd tt [°C] td [°C] tt 5cm [°C] ff [km/u] ff [kn] fx [km/u] fx [kn] dd ppp [hPa] vv [km] rr [mm]
18.11.2017 03:00:00 6,4 3,2 2,0 5 3 9 5 N 1016,5 10 0,0
18.11.2017 02:00:00 4,2 2,5 2,1 8 4 11 6 N 1016,4 10 0,0
18.11.2017 01:00:00 4,7 3,2 2,6 8 4 11 6 NNO 1016,4 26 0,0
18.11.2017 00:00:00 5,0 3,2 2,3 5 3 9 5 N 1016,4 10 0,0
17.11.2017 23:00:00 7,3 5,6 3,0 5 3 13 7 - 1016,5 10 0,0
17.11.2017 22:00:00 6,8 5,6 3,6 5 3 11 6 NNW 1016,6 10 0,0
17.11.2017 21:00:00 6,7 5,0 3,1 5 3 8 4 NNO 1016,2 10 0,0
17.11.2017 20:00:00 8,9 6,9 5,2 0 0 8 4 N 1016,3 10 0,0
17.11.2017 19:00:00 12,9 7,6 6,9 4 2 15 8 NNO 1016,1 10 0,0
17.11.2017 18:00:00 14,2 8,4 11,7 15 8 19 11 WZW 1016,0 10 0,0
17.11.2017 17:00:00 15,0 10,4 13,6 13 7 23 13 WZW 1015,9 10 0,0
17.11.2017 16:00:00 16,5 10,3 18,3 15 8 24 13 ZW 1016,0 10 0,0
17.11.2017 15:00:00 17,2 9,9 20,0 13 7 18 10 ZW 1016,3 10 0,0
17.11.2017 14:00:00 17,8 9,7 21,7 13 7 18 10 ZW 1016,8 10 0,0
17.11.2017 13:00:00 18,1 8,9 22,0 7 4 16 9 ZZO 1017,1 20 0,0
17.11.2017 12:00:00 18,0 8,8 21,8 5 3 12 6 ZZO 1017,5 10 0,0
17.11.2017 11:00:00 17,8 8,1 21,3 5 3 12 6 OZO 1017,6 10 0,0
17.11.2017 10:00:00 15,3 3,1 10,9 5 3 11 6 NNW 1017,5 10 0,0
17.11.2017 09:00:00 10,9 3,0 7,1 5 3 13 7 - 1017,4 10 0,0
17.11.2017 08:00:00 6,6 1,5 2,2 8 4 11 6 N 1017,0 10 0,0
17.11.2017 07:00:00 4,2 0,5 2,1 9 5 11 6 NNO 1016,5 10 0,0
17.11.2017 06:00:00 6,8 0,7 3,1 8 4 12 7 N 1016,5 10 0,0
17.11.2017 05:00:00 6,0 0,7 1,6 8 4 11 6 N 1016,7 10 0,0
17.11.2017 04:00:00 4,4 0,4 1,9 9 5 10 5 N 1016,6 10 0,0
17.11.2017 03:00:00 4,7 0,6 1,7 9 5 13 7 N 1016,6 10 0,0
17.11.2017 02:00:00 6,7 0,4 3,2 5 3 13 7 - 1016,9 10 0,0
17.11.2017 01:00:00 6,7 0,8 1,5 8 4 16 9 NW 1017,1 10 0,0
17.11.2017 00:00:00 5,8 1,9 1,2 4 2 15 8 - 1017,4 10 0,0
16.11.2017 23:00:00 5,6 2,1 2,4 8 4 13 7 NW 1017,5 10 0,0
16.11.2017 22:00:00 6,4 3,0 2,5 9 5 14 7 N 1017,6 10 0,0
16.11.2017 21:00:00 6,6 2,3 2,9 8 4 8 5 N 1017,8 10 0,0
16.11.2017 20:00:00 9,6 3,6 4,8 4 2 9 5 - 1017,6 10 0,0
16.11.2017 19:00:00 11,8 3,3 6,3 5 3 17 9 WNW 1017,6 10 0,0
16.11.2017 18:00:00 13,8 2,4 8,5 9 5 28 15 W 1017,5 10 0,0
16.11.2017 17:00:00 15,1 4,5 13,7 21 11 32 18 W 1017,5 10 0,0
16.11.2017 16:00:00 16,4 4,4 17,5 21 11 36 19 W 1017,3 10 0,0
16.11.2017 15:00:00 17,0 5,0 19,3 29 16 42 23 WZW 1017,9 58 0,0
16.11.2017 14:00:00 17,8 5,4 20,6 26 14 35 19 WZW 1018,3 10 0,0
16.11.2017 13:00:00 17,8 5,7 20,5 22 12 36 19 W 1018,8 10 0,0
16.11.2017 12:00:00 17,2 5,8 20,8 22 12 32 17 WZW 1019,4 10 0,0
16.11.2017 11:00:00 17,6 3,1 21,1 4 2 12 6 - 1020,1 10 0,0
16.11.2017 10:00:00 14,3 1,2 10,4 5 3 15 8 NW 1020,0 10 0,0
16.11.2017 09:00:00 10,1 2,0 5,8 9 5 14 8 N 1019,9 10 0,0
16.11.2017 08:00:00 4,5 0,3 1,8 9 5 10 6 N 1019,4 10 0,0
16.11.2017 07:00:00 5,6 -0,7 2,8 6 4 16 8 NNW 1019,0 60 0,0
16.11.2017 06:00:00 6,5 -0,5 3,1 13 7 18 10 NW 1018,8 10 0,0
16.11.2017 05:00:00 6,3 -0,5 2,2 5 3 10 5 - 1018,8 10 0,0
16.11.2017 04:00:00 6,0 -0,1 1,8 5 3 10 5 N 1018,7 10 0,0
16.11.2017 03:00:00 5,8 -0,5 3,0 5 3 14 8 N 1018,8 10 0,0
16.11.2017 02:00:00 7,6 -0,1 4,1 9 5 17 9 NW 1018,7 10 0,0
16.11.2017 01:00:00 7,1 0,3 2,9 13 7 17 9 NW 1018,7 10 0,0
16.11.2017 00:00:00 5,8 1,5 2,9 8 4 11 6 NNW 1018,8 10 0,0
15.11.2017 23:00:00 6,7 2,2 2,4 5 3 17 9 - 1018,9 10 0,0
15.11.2017 22:00:00 5,0 2,4 1,9 5 3 8 4 N 1018,8 10 0,0
15.11.2017 21:00:00 5,4 2,6 2,2 5 3 9 5 N 1018,6 10 0,0
15.11.2017 20:00:00 7,9 3,9 3,5 4 2 9 5 - 1018,1 10 0,0
15.11.2017 19:00:00 8,3 3,7 4,8 5 3 7 4 NNO 1017,6 10 0,0
15.11.2017 18:00:00 11,4 5,7 5,8 2 1 19 10 - 1017,3 10 0,0
15.11.2017 17:00:00 14,5 6,3 12,3 8 4 18 10 WZW 1016,8 10 0,0
15.11.2017 16:00:00 16,2 6,9 18,2 11 6 21 12 ZW 1016,5 10 0,0
15.11.2017 15:00:00 16,5 7,4 19,0 13 7 19 10 ZW 1016,3 10 0,0
15.11.2017 14:00:00 18,0 5,6 23,6 9 5 14 8 Z 1016,5 10 0,0
15.11.2017 13:00:00 18,6 0,2 22,8 5 3 12 7 ZZO 1016,6 10 0,0
15.11.2017 12:00:00 17,5 -1,7 22,4 8 4 13 7 Z 1017,0 10 0,0
15.11.2017 11:00:00 16,6 -0,6 21,7 5 3 10 6 WZW 1017,1 10 0,0
15.11.2017 10:00:00 15,2 -1,4 10,3 5 3 15 8 - 1016,8 10 0,0
15.11.2017 09:00:00 10,8 -1,3 4,4 9 5 14 8 NW 1016,3 10 0,0
15.11.2017 08:00:00 5,0 -2,6 0,9 4 2 21 11 - 1016,2 10 0,0
15.11.2017 07:00:00 6,2 -3,2 1,4 15 8 18 10 NW 1015,2 10 0,0
15.11.2017 06:00:00 6,6 -3,4 3,0 14 8 20 11 NW 1015,0 60 0,0
15.11.2017 05:00:00 10,1 -4,0 3,0 13 7 16 9 WNW 1014,8 10 0,0
15.11.2017 04:00:00 8,9 -3,7 5,4 9 5 20 11 NNW 1014,9 10 0,0
15.11.2017 03:00:00 8,7 -3,8 6,4 8 4 16 8 NW 1015,4 10 0,0
15.11.2017 02:00:00 9,2 -3,4 6,3 9 5 20 11 NW 1015,7 10 0,0
15.11.2017 01:00:00 9,0 -3,2 5,8 11 6 19 10 NW 1016,0 10 0,0
15.11.2017 00:00:00 8,4 -3,2 6,3 11 6 21 12 NW 1016,0 10 0,0
14.11.2017 23:00:00 9,7 -2,6 5,3 8 4 21 12 NNW 1016,1 10 0,0
14.11.2017 22:00:00 7,9 -2,7 1,1 7 4 17 9 NNW 1016,6 60 0,0
14.11.2017 21:00:00 4,9 -1,3 1,7 8 4 13 7 NNW 1016,5 10 0,0
14.11.2017 20:00:00 6,0 -0,3 1,3 6 4 11 6 N 1016,2 21 0,0
14.11.2017 19:00:00 8,2 -0,6 3,1 5 3 10 5 N 1016,1 10 0,0
14.11.2017 18:00:00 11,7 -2,2 5,1 2 1 12 6 - 1015,5 10 0,0
14.11.2017 17:00:00 14,7 -2,7 13,2 13 7 29 16 WZW 1015,3 10 0,0
14.11.2017 16:00:00 15,9 -0,4 17,2 18 10 29 16 ZW 1015,1 10 0,0
14.11.2017 15:00:00 16,2 -1,0 19,2 18 10 29 16 ZZW 1014,8 10 0,0
14.11.2017 14:00:00 16,3 -0,9 20,0 18 10 26 14 ZZW 1015,2 10 0,0
14.11.2017 13:00:00 16,4 -0,4 20,7 16 9 25 14 ZW 1014,9 10 0,0
14.11.2017 12:00:00 16,4 -4,8 20,8 8 4 21 11 NNW 1015,1 10 0,0
14.11.2017 11:00:00 14,5 -3,8 17,2 13 7 22 12 NNW 1015,0 10 0,0
14.11.2017 10:00:00 12,0 -4,2 10,2 13 7 24 13 NW 1014,7 10 0,0
14.11.2017 09:00:00 10,1 -4,0 9,0 13 7 26 14 NNW 1014,2 10 0,0
14.11.2017 08:00:00 8,0 -4,5 5,9 13 7 29 16 NNW 1013,1 10 0,0
14.11.2017 07:00:00 7,8 -5,0 5,5 16 9 27 15 NNW 1012,2 10 0,0
14.11.2017 06:00:00 8,0 -4,8 6,0 16 9 30 16 NNW 1011,3 10 0,0
14.11.2017 05:00:00 8,2 -5,0 6,4 18 10 29 15 NNW 1010,8 10 0,0
14.11.2017 04:00:00 8,4 -5,5 5,1 13 7 33 18 WNW 1010,6 10 0,0
14.11.2017 03:00:00 9,1 -5,6 7,8 21 11 45 24 N 1010,3 10 0,0
14.11.2017 02:00:00 9,8 -5,7 8,5 26 14 45 25 N 1009,8 10 0,0
14.11.2017 01:00:00 9,9 -6,1 8,1 21 11 36 19 N 1009,5 10 0,0
14.11.2017 00:00:00 10,3 -5,7 8,9 22 12 40 21 N 1009,1 10 0,0
13.11.2017 23:00:00 10,2 -5,4 8,7 21 11 40 22 N 1008,7 10 0,0
13.11.2017 22:00:00 10,5 -5,1 9,3 26 14 50 27 N 1008,1 10 0,0
13.11.2017 21:00:00 10,7 -5,4 9,7 28 15 59 32 N 1007,0 10 0,0
13.11.2017 20:00:00 11,3 -5,7 10,2 28 15 53 29 N 1006,0 10 0,0
13.11.2017 19:00:00 11,9 -6,1 10,8 26 14 51 28 NNW 1005,0 10 0,0
13.11.2017 18:00:00 12,6 -5,9 11,3 28 15 56 30 NNW 1004,2 10 0,0
13.11.2017 17:00:00 13,4 -5,7 12,7 26 14 51 28 NNW 1003,2 10 0,0
13.11.2017 16:00:00 14,7 -5,7 16,4 28 15 50 27 NNW 1002,7 10 0,0
13.11.2017 15:00:00 15,3 -4,6 15,9 29 16 55 30 NNW 1002,3 10 0,0
13.11.2017 14:00:00 15,3 -3,6 17,8 37 20 72 39 NNW 1002,1 10 0,0
13.11.2017 13:00:00 14,5 -2,9 17,2 35 19 75 41 NNW 1001,9 10 0,0
13.11.2017 12:00:00 13,9 -3,0 15,3 48 26 87 47 NNW 1001,8 10 0,0
13.11.2017 11:00:00 13,0 -2,5 14,7 42 23 82 44 NNW 1002,1 10 0,0
13.11.2017 10:00:00 11,8 -2,4 11,9 50 27 87 47 NNW 1001,6 10 0,0
13.11.2017 09:00:00 10,9 -2,5 10,4 35 19 75 40 NNW 1002,6 10 0,0
13.11.2017 08:00:00 10,0 -2,3 8,6 41 22 91 49 NNW 1002,4 45 0,0
13.11.2017 07:00:00 9,5 -2,5 8,5 46 25 80 43 NNW 1001,8 60 0,0
13.11.2017 06:00:00 9,8 -3,2 8,3 39 21 81 44 NNW 1002,7 60 0,0
13.11.2017 05:00:00 9,5 -4,9 8,5 39 21 82 44 NNW 1002,9 60 0,0
13.11.2017 04:00:00 10,2 -6,2 8,8 40 21 90 49 NW 1002,4 60 0,0
13.11.2017 03:00:00 9,9 -4,9 8,9 40 21 91 49 NW 1002,2 60 0,0
13.11.2017 02:00:00 10,7 -3,4 9,5 40 22 82 44 WNW 1002,2 60 0,0
13.11.2017 01:00:00 11,2 -3,3 10,0 37 20 71 39 WNW 1001,8 60 0,0
13.11.2017 00:00:00 13,4 -2,2 12,1 16 9 55 30 NW 1001,7 60 0,0
12.11.2017 23:00:00 13,0 1,6 12,5 34 18 68 37 NW 1002,0 60 0,0
12.11.2017 22:00:00 16,4 11,5 15,4 48 26 86 47 W 1001,3 43 0,0
12.11.2017 21:00:00 16,1 11,3 15,0 49 26 71 38 W 1002,6 45 0,0
12.11.2017 20:00:00 16,4 10,0 15,4 51 28 76 41 W 1003,7 60 0,0
12.11.2017 19:00:00 16,8 8,2 15,7 39 21 67 36 W 1004,2 60 0,0
12.11.2017 18:00:00 17,3 8,4 16,2 43 23 65 35 W 1005,6 60 0,0
12.11.2017 17:00:00 17,5 9,4 16,8 34 19 54 29 W 1006,1 45 0,0
12.11.2017 16:00:00 - - - - - - - - - - -
12.11.2017 15:00:00 - - - - - - - - - - -
12.11.2017 14:00:00 - - - - - - - - - - -
12.11.2017 13:00:00 - - - - - - - - - - -
12.11.2017 12:00:00 - - - - - - - - - - -
12.11.2017 11:00:00 - - - - - - - - - - -
12.11.2017 10:00:00 - - - - - - - - - - -
12.11.2017 09:00:00 - - - - - - - - - - -
12.11.2017 08:00:00 - - - - - - - - - - -
12.11.2017 07:00:00 - - - - - - - - - - -
12.11.2017 06:00:00 - - - - - - - - - - -
12.11.2017 05:00:00 - - - - - - - - - - -
12.11.2017 04:00:00 - - - - - - - - - - -
12.11.2017 03:00:00 - - - - - - - - - - -

tt = temperatuur
td = dauwpunt
tt 5cm = temperatuur 5cm
ff = windsnelheid
fx = windstoten
dd = windrichting
ppp = luchtdruk
vv = zicht
rr = neerslag

Weerstations in de omgeving